Time,TemperatureF,DewpointF,PressureIn,WindDirection,WindDirectionDegrees,WindSpeedMPH,WindSpeedGustMPH,Humidity,HourlyPrecipIn,Conditions,Clouds,dailyrainin,SoftwareType,DateUTC
2013-02-17 00:00:00,77.9,75.4,29.75,WSW,248,1.9,5.0,92,0.13,,BKN300,0.00,VWS V13.01,2013-02-16 14:00:00,
2013-02-17 00:15:00,77.7,75.2,29.75,WSW,248,1.9,5.0,92,0.13,,BKN300,0.00,VWS V13.01,2013-02-16 14:15:00,
2013-02-17 00:30:00,77.7,75.2,29.74,WSW,248,0.6,1.3,92,0.01,,BKN300,0.00,VWS V13.01,2013-02-16 14:30:00,
2013-02-17 00:45:00,77.8,75.6,29.74,WSW,248,0.6,0.0,93,0.00,,BKN300,0.00,VWS V13.01,2013-02-16 14:45:00,
2013-02-17 01:00:00,77.9,75.7,29.73,WSW,248,0.6,0.0,93,0.00,,BKN300,0.00,VWS V13.01,2013-02-16 15:00:00,
2013-02-17 01:15:00,77.8,75.6,29.72,WSW,248,0.6,0.0,93,0.00,,BKN300,0.00,VWS V13.01,2013-02-16 15:15:00,
2013-02-17 01:30:00,77.8,75.6,29.72,WSW,248,0.6,0.0,93,0.00,,BKN300,0.00,VWS V13.01,2013-02-16 15:30:00,
2013-02-17 01:45:00,77.8,75.6,29.72,WSW,248,0.6,0.0,93,0.00,,BKN300,0.00,VWS V13.01,2013-02-16 15:45:00,
2013-02-17 02:00:00,77.8,75.9,29.71,WSW,248,0.6,0.0,94,0.00,,BKN300,0.00,VWS V13.01,2013-02-16 16:00:00,
2013-02-17 02:15:00,77.7,75.8,29.70,WSW,248,0.6,0.0,94,0.00,,BKN300,0.00,VWS V13.01,2013-02-16 16:15:00,
2013-02-17 02:30:00,77.7,75.5,29.70,WSW,248,0.6,0.0,93,0.00,,BKN300,0.00,VWS V13.01,2013-02-16 16:30:00,
2013-02-17 02:45:00,77.3,75.1,29.70,WSW,248,0.6,0.0,93,0.00,,BKN300,0.00,VWS V13.01,2013-02-16 16:45:00,
2013-02-17 03:00:00,77.0,74.8,29.69,WSW,248,0.6,0.0,93,0.00,,BKN300,0.00,VWS V13.01,2013-02-16 17:00:00,
2013-02-17 03:15:00,77.0,74.8,29.69,WSW,248,0.6,0.0,93,0.00,,BKN300,0.00,VWS V13.01,2013-02-16 17:15:00,
2013-02-17 03:30:00,76.8,74.6,29.68,WSW,248,0.6,0.0,93,0.00,,BKN300,0.00,VWS V13.01,2013-02-16 17:30:00,
2013-02-17 03:45:00,76.7,74.5,29.69,WSW,248,0.6,0.0,93,0.00,,BKN300,0.00,VWS V13.01,2013-02-16 17:45:00,
2013-02-17 04:00:00,76.6,74.4,29.68,WSW,248,0.6,0.0,93,0.00,,BKN300,0.00,VWS V13.01,2013-02-16 18:00:00,
2013-02-17 04:15:00,76.5,74.7,29.68,WSW,248,0.6,0.0,94,0.00,,BKN300,0.00,VWS V13.01,2013-02-16 18:15:00,
2013-02-17 04:30:00,76.4,74.6,29.69,WSW,248,0.6,0.0,94,0.00,,BKN300,0.00,VWS V13.01,2013-02-16 18:30:00,
2013-02-17 04:45:00,76.2,74.3,29.69,WSW,248,0.6,0.0,94,0.00,,BKN300,0.00,VWS V13.01,2013-02-16 18:45:00,
2013-02-17 05:00:00,76.0,74.2,29.69,WSW,248,0.6,0.0,94,0.00,,BKN300,0.00,VWS V13.01,2013-02-16 19:00:00,
2013-02-17 05:15:00,75.9,74.1,29.69,WSW,248,0.6,0.0,94,0.00,,BKN300,0.00,VWS V13.01,2013-02-16 19:15:00,
2013-02-17 05:30:00,75.8,73.9,29.70,WSW,248,0.6,0.0,94,0.00,,BKN300,0.00,VWS V13.01,2013-02-16 19:30:00,
2013-02-17 05:45:00,75.8,73.9,29.69,WSW,248,0.6,0.0,94,0.00,,BKN300,0.00,VWS V13.01,2013-02-16 19:45:00,
2013-02-17 06:00:00,75.8,73.9,29.70,WSW,248,0.6,0.0,94,0.00,,BKN300,0.00,VWS V13.01,2013-02-16 20:00:00,
2013-02-17 06:15:00,75.7,73.8,29.70,WSW,248,0.6,0.0,94,0.00,,BKN300,0.00,VWS V13.01,2013-02-16 20:15:00,
2013-02-17 06:30:00,75.7,73.8,29.71,WSW,248,0.6,0.0,94,0.01,,BKN300,0.01,VWS V13.01,2013-02-16 20:30:00,
2013-02-17 06:45:00,75.9,74.4,29.71,WSW,248,0.6,0.0,95,0.01,,BKN300,0.01,VWS V13.01,2013-02-16 20:45:00,
2013-02-17 07:00:00,76.3,74.4,29.71,WSW,248,0.6,0.0,94,0.01,,BKN300,0.01,VWS V13.01,2013-02-16 21:00:00,
2013-02-17 07:15:00,77.0,75.1,29.71,WSW,248,0.6,0.0,94,0.01,,BKN300,0.01,VWS V13.01,2013-02-16 21:15:00,
2013-02-17 07:30:00,78.0,75.8,29.72,WSW,248,0.6,0.0,93,0.01,,BKN300,0.01,VWS V13.01,2013-02-16 21:30:00,
2013-02-17 07:53:00,79.6,76.1,29.72,SE,135,1.9,3.8,89,0.00,,BKN300,0.01,VWS V13.01,2013-02-16 21:53:00,
2013-02-17 07:58:00,80.7,75.8,29.73,ESE,112,4.4,4.4,85,0.00,,BKN300,0.01,VWS V13.01,2013-02-16 21:58:00,
2013-02-17 08:03:00,81.3,76.4,29.74,ESE,119,1.9,3.8,85,0.00,,SCT300,0.01,VWS V13.01,2013-02-16 22:03:00,
2013-02-17 08:08:00,81.9,76.6,29.74,SE,135,3.1,3.8,84,0.00,,SCT300,0.01,VWS V13.01,2013-02-16 22:08:00,
2013-02-17 08:13:00,82.8,76.8,29.73,SE,144,3.1,3.8,82,0.00,,SCT300,0.01,VWS V13.01,2013-02-16 22:13:00,
2013-02-17 08:18:00,83.5,77.1,29.74,East,90,0.6,3.8,81,0.00,,SCT300,0.01,VWS V13.01,2013-02-16 22:18:00,
2013-02-17 08:23:00,83.9,77.1,29.74,ESE,106,3.1,3.8,80,0.00,,SCT300,0.01,VWS V13.01,2013-02-16 22:23:00,
2013-02-17 08:28:00,84.2,77.0,29.74,East,99,4.4,4.4,79,0.00,,SCT300,0.01,VWS V13.01,2013-02-16 22:28:00,
2013-02-17 08:33:00,84.4,76.8,29.74,SE,130,4.4,4.4,78,0.00,,SCT300,0.01,VWS V13.01,2013-02-16 22:33:00,
2013-02-17 08:38:00,84.6,77.0,29.74,ESE,111,4.4,4.4,78,0.00,,SCT300,0.01,VWS V13.01,2013-02-16 22:38:00,
2013-02-17 08:43:00,85.3,76.9,29.74,East,99,6.9,6.9,76,0.00,,SCT300,0.01,VWS V13.01,2013-02-16 22:43:00,
2013-02-17 08:48:00,85.5,77.1,29.74,SE,126,4.4,4.4,76,0.00,,SCT300,0.01,VWS V13.01,2013-02-16 22:48:00,
2013-02-17 08:53:00,85.5,76.7,29.74,SSE,158,5.6,5.6,75,0.00,,SCT300,0.01,VWS V13.01,2013-02-16 22:53:00,
2013-02-17 08:58:00,85.9,77.1,29.74,SW,218,4.4,4.4,75,0.00,,SCT300,0.01,VWS V13.01,2013-02-16 22:58:00,
2013-02-17 09:03:00,86.2,76.9,29.74,SSE,151,3.1,3.8,74,0.00,,SCT300,0.01,VWS V13.01,2013-02-16 23:03:00,
2013-02-17 09:08:00,86.6,77.7,29.74,South,170,1.9,3.8,75,0.00,,SCT300,0.01,VWS V13.01,2013-02-16 23:08:00,
2013-02-17 09:15:00,86.6,76.9,29.75,SE,135,3.1,7.5,73,0.00,,SCT300,0.01,VWS V13.01,2013-02-16 23:15:00,
2013-02-17 09:30:00,87.4,76.8,29.75,SE,135,3.1,10.0,71,0.00,,SCT300,0.01,VWS V13.01,2013-02-16 23:30:00,
2013-02-17 09:45:00,88.2,76.8,29.75,SE,135,3.1,7.5,69,0.00,,SCT300,0.01,VWS V13.01,2013-02-16 23:45:00,
2013-02-17 10:00:00,88.4,76.9,29.75,SE,135,3.1,6.2,69,0.00,,SCT300,0.01,VWS V13.01,2013-02-17 00:00:00,
2013-02-17 10:15:00,88.9,77.0,29.75,ENE,68,4.4,10.0,68,0.00,,SCT300,0.01,VWS V13.01,2013-02-17 00:15:00,
2013-02-17 10:30:00,88.9,77.4,29.75,ENE,68,5.6,12.5,69,0.00,,SCT300,0.01,VWS V13.01,2013-02-17 00:30:00,
2013-02-17 10:45:00,88.6,77.6,29.75,ENE,68,5.6,12.5,70,0.00,,SCT300,0.01,VWS V13.01,2013-02-17 00:45:00,
2013-02-17 11:00:00,88.2,77.6,29.75,ENE,68,5.6,13.7,71,0.00,,SCT300,0.01,VWS V13.01,2013-02-17 01:00:00,
2013-02-17 11:15:00,88.2,78.0,29.74,ENE,68,5.6,15.0,72,0.00,,SCT300,0.01,VWS V13.01,2013-02-17 01:15:00,
2013-02-17 11:30:00,88.3,78.1,29.74,ENE,68,4.4,10.0,72,0.00,,SCT300,0.01,VWS V13.01,2013-02-17 01:30:00,
2013-02-17 11:45:00,89.6,77.6,29.73,ENE,68,5.6,10.0,68,0.00,,SCT300,0.01,VWS V13.01,2013-02-17 01:45:00,
2013-02-17 12:00:00,89.1,77.2,29.74,ENE,68,4.4,10.0,68,0.00,,SCT300,0.01,VWS V13.01,2013-02-17 02:00:00,
2013-02-17 12:15:00,89.0,77.5,29.73,ENE,68,5.6,11.3,69,0.00,,SCT300,0.01,VWS V13.01,2013-02-17 02:15:00,
2013-02-17 12:30:00,89.1,78.0,29.72,ENE,68,5.6,10.0,70,0.00,,SCT300,0.01,VWS V13.01,2013-02-17 02:30:00,
2013-02-17 12:45:00,89.4,77.9,29.71,ENE,68,4.4,10.0,69,0.00,,SCT300,0.01,VWS V13.01,2013-02-17 02:45:00,
2013-02-17 13:00:00,89.8,78.7,29.70,ENE,68,5.6,11.3,70,0.00,,SCT300,0.01,VWS V13.01,2013-02-17 03:00:00,
2013-02-17 13:15:00,89.4,77.9,29.70,ENE,68,4.4,12.5,69,0.00,,SCT300,0.01,VWS V13.01,2013-02-17 03:15:00,
2013-02-17 13:30:00,89.1,78.0,29.70,ENE,68,5.6,11.3,70,0.00,,SCT300,0.01,VWS V13.01,2013-02-17 03:30:00,
2013-02-17 13:45:00,88.4,78.2,29.69,ENE,68,5.6,13.7,72,0.00,,SCT300,0.01,VWS V13.01,2013-02-17 03:45:00,
2013-02-17 14:00:00,88.9,78.3,29.68,ENE,68,5.6,13.7,71,0.00,,SCT300,0.01,VWS V13.01,2013-02-17 04:00:00,
2013-02-17 14:15:00,88.9,77.8,29.68,ENE,68,6.9,15.0,70,0.00,,SCT300,0.01,VWS V13.01,2013-02-17 04:15:00,
2013-02-17 14:30:00,88.7,78.9,29.67,ENE,68,5.6,12.5,73,0.00,,SCT300,0.01,VWS V13.01,2013-02-17 04:30:00,
2013-02-17 14:45:00,88.3,78.6,29.67,East,90,5.6,12.5,73,0.00,,SCT300,0.01,VWS V13.01,2013-02-17 04:45:00,
2013-02-17 15:00:00,88.3,79.4,29.66,East,90,6.9,16.3,75,0.00,,SCT300,0.01,VWS V13.01,2013-02-17 05:00:00,
2013-02-17 15:15:00,88.1,78.4,29.66,ENE,68,5.6,13.7,73,0.00,,SCT300,0.01,VWS V13.01,2013-02-17 05:15:00,
2013-02-17 15:30:00,87.5,78.2,29.65,ESE,112,6.9,15.0,74,0.00,,SCT300,0.01,VWS V13.01,2013-02-17 05:30:00,
2013-02-17 15:45:00,87.3,78.4,29.65,ESE,112,5.6,15.0,75,0.00,,SCT300,0.01,VWS V13.01,2013-02-17 05:45:00,
2013-02-17 16:00:00,86.8,77.9,29.65,ESE,112,6.9,16.3,75,0.00,,SCT300,0.01,VWS V13.01,2013-02-17 06:00:00,
2013-02-17 16:15:00,86.1,78.1,29.64,ENE,68,6.9,16.3,77,0.00,,SCT300,0.01,VWS V13.01,2013-02-17 06:15:00,
2013-02-17 16:30:00,85.9,77.9,29.64,ESE,112,5.6,12.5,77,0.00,,SCT300,0.01,VWS V13.01,2013-02-17 06:30:00,
2013-02-17 16:45:00,85.3,76.9,29.63,ENE,68,4.4,10.0,76,0.00,,SCT300,0.01,VWS V13.01,2013-02-17 06:45:00,
2013-02-17 17:00:00,85.5,76.3,29.63,ESE,112,4.4,10.0,74,0.00,,SCT300,0.01,VWS V13.01,2013-02-17 07:00:00,
2013-02-17 17:15:00,84.8,76.8,29.63,ENE,68,3.1,10.0,77,0.00,,SCT300,0.01,VWS V13.01,2013-02-17 07:15:00,
2013-02-17 17:30:00,84.1,76.1,29.64,ENE,68,3.1,8.7,77,0.00,,SCT300,0.01,VWS V13.01,2013-02-17 07:30:00,
2013-02-17 17:45:00,83.7,76.1,29.65,ESE,112,3.1,7.5,78,0.00,,SCT300,0.01,VWS V13.01,2013-02-17 07:45:00,
2013-02-17 18:00:00,83.5,75.9,29.65,ESE,112,1.9,5.0,78,0.00,,SCT300,0.01,VWS V13.01,2013-02-17 08:00:00,
2013-02-17 18:15:00,83.4,75.8,29.65,ESE,112,3.1,7.5,78,0.00,,SCT300,0.01,VWS V13.01,2013-02-17 08:15:00,
2013-02-17 18:30:00,83.1,75.2,29.66,ESE,112,3.1,7.5,77,0.00,,SCT300,0.01,VWS V13.01,2013-02-17 08:30:00,
2013-02-17 18:45:00,83.0,75.1,29.65,ESE,112,1.9,6.2,77,0.00,,SCT300,0.01,VWS V13.01,2013-02-17 08:45:00,
2013-02-17 19:00:00,83.1,75.5,29.66,ESE,112,1.9,5.0,78,0.00,,SCT300,0.01,VWS V13.01,2013-02-17 09:00:00,
2013-02-17 19:15:00,82.6,75.4,29.67,SE,135,1.9,7.5,79,0.00,,SCT300,0.01,VWS V13.01,2013-02-17 09:15:00,
2013-02-17 19:30:00,82.0,75.2,29.68,SE,135,1.9,5.0,80,0.00,,SCT300,0.01,VWS V13.01,2013-02-17 09:30:00,
2013-02-17 19:45:00,81.6,75.2,29.68,SE,135,3.1,7.5,81,0.00,,SCT300,0.01,VWS V13.01,2013-02-17 09:45:00,
2013-02-17 20:00:00,81.4,75.4,29.68,SE,135,3.1,10.0,82,0.00,,SCT300,0.01,VWS V13.01,2013-02-17 10:00:00,
2013-02-17 20:15:00,81.2,75.2,29.68,SE,135,1.9,6.2,82,0.00,,SCT300,0.01,VWS V13.01,2013-02-17 10:15:00,
2013-02-17 20:30:00,81.0,75.0,29.69,ESE,112,1.9,5.0,82,0.00,,SCT300,0.01,VWS V13.01,2013-02-17 10:30:00,
2013-02-17 20:45:00,80.9,74.9,29.70,SE,135,1.9,3.8,82,0.00,,SCT300,0.01,VWS V13.01,2013-02-17 10:45:00,
2013-02-17 21:00:00,80.7,75.1,29.70,ESE,112,0.6,3.8,83,0.00,,SCT300,0.01,VWS V13.01,2013-02-17 11:00:00,
2013-02-17 21:15:00,80.5,74.9,29.70,SE,135,1.9,6.2,83,0.00,,SCT300,0.01,VWS V13.01,2013-02-17 11:15:00,
2013-02-17 21:30:00,80.6,74.6,29.70,SE,135,1.9,5.0,82,0.00,,SCT300,0.01,VWS V13.01,2013-02-17 11:30:00,
2013-02-17 21:45:00,80.5,74.5,29.71,ESE,112,1.9,6.2,82,0.00,,SCT300,0.01,VWS V13.01,2013-02-17 11:45:00,
2013-02-17 22:00:00,80.6,74.6,29.71,ESE,112,0.6,2.5,82,0.00,,SCT300,0.01,VWS V13.01,2013-02-17 12:00:00,
2013-02-17 22:15:00,80.6,74.2,29.72,ESE,112,0.6,3.8,81,0.00,,SCT300,0.01,VWS V13.01,2013-02-17 12:15:00,
2013-02-17 22:30:00,80.7,74.3,29.71,ESE,112,1.9,2.5,81,0.00,,SCT300,0.01,VWS V13.01,2013-02-17 12:30:00,
2013-02-17 22:45:00,80.7,74.7,29.71,ESE,112,1.9,5.0,82,0.00,,SCT300,0.01,VWS V13.01,2013-02-17 12:45:00,
2013-02-17 23:00:00,80.6,75.0,29.71,SE,135,1.9,5.0,83,0.00,,SCT300,0.01,VWS V13.01,2013-02-17 13:00:00,
2013-02-17 23:15:00,80.2,74.9,29.71,SE,135,3.1,5.0,84,0.00,,SCT300,0.01,VWS V13.01,2013-02-17 13:15:00,
2013-02-17 23:30:00,79.9,74.6,29.71,ESE,112,1.9,5.0,84,0.00,,SCT300,0.01,VWS V13.01,2013-02-17 13:30:00,
2013-02-17 23:45:00,79.8,74.5,29.70,SE,135,0.6,3.8,84,0.00,,SCT300,0.01,VWS V13.01,2013-02-17 13:45:00,